| time (UTC) | temp F | wind direction | speed knots | gust knots | rain 1hr in | rain 24hr in | rain mn in | humidity % | barometer mb |
| 20260503214541 | 56 | 213 | 2.6 | 11.3 | 0.00 | 0.00 | 0.00 | 41 | 1011.2 |
| 20260503213038 | 57 | 192 | 5.2 | 11.3 | 0.00 | 0.00 | 0.00 | 40 | 1011.1 |
| 20260503211537 | 56 | 197 | 2.6 | 8.7 | 0.00 | 0.00 | 0.00 | 41 | 1011.1 |
| 20260503210038 | 55 | 229 | 6.1 | 11.3 | 0.00 | 0.00 | 0.00 | 41 | 1011.2 |
| 20260503204537 | 56 | 168 | 6.1 | 11.3 | 0.00 | 0.00 | 0.00 | 40 | 1011.2 |
| 20260503203038 | 54 | 216 | 2.6 | 14.8 | 0.00 | 0.00 | 0.00 | 42 | 1011.3 |
| 20260503201537 | 54 | 167 | 3.5 | 15.6 | 0.00 | 0.00 | 0.00 | 41 | 1011.5 |
| 20260503200042 | 54 | 198 | 1.7 | 8.7 | 0.00 | 0.00 | 0.00 | 44 | 1011.7 |
| 20260503194539 | 54 | 213 | 4.3 | 12.2 | 0.00 | 0.00 | 0.00 | 40 | 1012.2 |
| 20260503193048 | 54 | 221 | 5.2 | 11.3 | 0.00 | 0.00 | 0.00 | 42 | 1012.3 |
| 20260503191539 | 54 | 273 | 3.5 | 10.4 | 0.00 | 0.00 | 0.00 | 42 | 1012.4 |
| 20260503190036 | 55 | 207 | 4.3 | 10.4 | 0.00 | 0.00 | 0.00 | 42 | 1012.6 |
| 20260503184544 | 53 | 271 | 5.2 | 13.9 | 0.00 | 0.00 | 0.00 | 43 | 1012.8 |
| 20260503183053 | 53 | 225 | 5.2 | 12.2 | 0.00 | 0.00 | 0.00 | 44 | 1013.0 |
| 20260503181539 | 53 | 212 | 6.1 | 12.2 | 0.00 | 0.00 | 0.00 | 42 | 1013.0 |
| 20260503180038 | 53 | 202 | 7.0 | 13.0 | 0.00 | 0.00 | 0.00 | 42 | 1013.1 |
| 20260503174537 | 52 | 242 | 6.1 | 13.0 | 0.00 | 0.00 | 0.00 | 45 | 1013.1 |
| 20260503173037 | 53 | 223 | 6.1 | 13.9 | 0.00 | 0.00 | 0.00 | 41 | 1013.1 |
| 20260503171539 | 52 | 230 | 5.2 | 13.9 | 0.00 | 0.00 | 0.00 | 48 | 1013.4 |
| 20260503081545 | 29 | 0 | 0.0 | 1.7 | 0.00 | 0.01 | 0.00 | 89 | 1013.5 |
| 20260503071535 | 30 | 0 | 0.0 | 1.7 | 0.00 | 0.01 | 0.00 | 86 | 1013.6 |
| 20260503054543 | 30 | 0 | 0.0 | 0.0 | 0.00 | 0.01 | 0.00 | 87 | 1013.9 |
| 20260503053034 | 30 | 0 | 0.0 | 0.0 | 0.00 | 0.01 | 0.00 | 87 | 1014.0 |
| 20260503051537 | 30 | 0 | 0.0 | 0.0 | 0.00 | 0.01 | 0.00 | 85 | 1014.0 |
| 20260503050039 | 31 | 0 | 0.0 | 0.0 | 0.00 | 0.01 | 0.00 | 83 | 1014.1 |
| 20260503044533 | 32 | 0 | 0.0 | 0.0 | 0.00 | 0.01 | 0.00 | 80 | 1014.2 |
| 20260503043034 | 33 | 0 | 0.0 | 1.7 | 0.00 | 0.01 | 0.00 | 78 | 1014.2 |
| 20260503041535 | 34 | 0 | 0.0 | 0.9 | 0.00 | 0.01 | 0.00 | 77 | 1014.3 |
| 20260503040045 | 34 | 0 | 0.0 | 1.7 | 0.00 | 0.01 | 0.00 | 77 | 1014.3 |
| 20260503034539 | 34 | 0 | 0.0 | 1.7 | 0.00 | 0.01 | 0.01 | 76 | 1014.3 |
| 20260503033042 | 35 | 0 | 0.0 | 0.0 | 0.00 | 0.01 | 0.01 | 75 | 1014.4 |
| 20260503031546 | 35 | 0 | 0.0 | 1.7 | 0.00 | 0.01 | 0.01 | 75 | 1014.4 |
| 20260503030040 | 35 | 0 | 0.0 | 1.7 | 0.00 | 0.01 | 0.01 | 74 | 1014.5 |
| 20260503024542 | 35 | 0 | 0.0 | 1.7 | 0.00 | 0.01 | 0.01 | 73 | 1014.4 |
| 20260503023036 | 36 | 261 | 0.0 | 1.7 | 0.00 | 0.01 | 0.01 | 71 | 1014.6 |
| 20260503021535 | 36 | 261 | 0.9 | 2.6 | 0.00 | 0.01 | 0.01 | 70 | 1014.6 |
| 20260503020035 | 36 | 0 | 0.0 | 1.7 | 0.00 | 0.01 | 0.01 | 69 | 1014.5 |
| 20260503014541 | 37 | 302 | 0.9 | 2.6 | 0.00 | 0.01 | 0.01 | 68 | 1014.4 |
| 20260503013039 | 37 | 255 | 0.9 | 3.5 | 0.00 | 0.01 | 0.01 | 67 | 1014.5 |
| 20260503011541 | 37 | 0 | 0.0 | 2.6 | 0.00 | 0.01 | 0.01 | 68 | 1014.4 |
| 20260503010035 | 37 | 320 | 0.9 | 3.5 | 0.00 | 0.01 | 0.01 | 66 | 1014.3 |
| 20260503004536 | 38 | 279 | 0.0 | 1.7 | 0.00 | 0.02 | 0.01 | 67 | 1014.1 |
| 20260503003040 | 38 | 250 | 0.9 | 2.6 | 0.00 | 0.02 | 0.01 | 65 | 1014.0 |
| 20260503001540 | 38 | 282 | 1.7 | 5.2 | 0.00 | 0.02 | 0.01 | 63 | 1014.0 |
| 20260503000036 | 39 | 282 | 0.9 | 6.1 | 0.00 | 0.02 | 0.01 | 64 | 1013.9 |
| 20260502234536 | 39 | 0 | 0.9 | 2.6 | 0.00 | 0.02 | 0.01 | 66 | 1013.8 |
| 20260502233043 | 39 | 271 | 0.9 | 5.2 | 0.00 | 0.02 | 0.01 | 63 | 1013.8 |
| 20260502231553 | 39 | 318 | 3.5 | 7.0 | 0.00 | 0.02 | 0.01 | 60 | 1013.8 |
| 20260502230042 | 40 | 227 | 1.7 | 5.2 | 0.00 | 0.02 | 0.01 | 62 | 1013.7 |
| 20260502224538 | 40 | 287 | 1.7 | 7.0 | 0.00 | 0.03 | 0.01 | 61 | 1013.7 |
| 20260502223044 | 40 | 219 | 2.6 | 8.7 | 0.00 | 0.03 | 0.01 | 59 | 1013.6 |
| 20260502221536 | 40 | 250 | 1.7 | 7.8 | 0.00 | 0.03 | 0.01 | 60 | 1013.6 |
| 20260502220045 | 40 | 281 | 3.5 | 6.1 | 0.00 | 0.03 | 0.01 | 59 | 1013.6 |